Retour au catalogue

THOR ABLESTAR R/B

ActifLEO
NORAD 59·ROCKET BODY·🇺🇸 United States

Lancé Oct 4, 1960 depuis Cape Canaveral Space Force Station

Loading…

Prochains Passages (prochaines 24 heures)

TLE

FraisSource: Space-Track

Époque: Sep 14, 2026, 09:47 UTC

1 00059U 60013B   26257.40789182  .00000104  00000-0  22655-4 0  9994
2 00059  28.2503  25.0623 0188959 344.9758  14.5233 13.53175812255268

Suivez THOR ABLESTAR R/B en temps réel avec AllMySat

Download on the App Store